Canadian, TX

11:38 PM CST on January 20, 2017 (GMT -0600)
Canadian

Weather History for KHHF - December, 2013

Change the Weather History Date:

Monday, December 30, 2013

  Actual Average (KPPA) Record (KPPA)
Temperature  
Mean Temperature 32 °F -  
Max Temperature 52 °F 45 °F 72 °F (1965)
Min Temperature 11 °F 20 °F -1 °F (1983)
Degree Days  
Heating Degree Days 34    
Moisture  
Dew Point 17 °F    
Average Humidity 66    
Maximum Humidity 88    
Minimum Humidity 30    
Precipitation  
Precipitation 0.00 in - - ()
Sea Level Pressure  
Sea Level Pressure 30.22 in    
Wind  
Wind Speed 2 mph (WNW)    
Max Wind Speed 15 mph    
Max Gust Speed 20 mph    
Visibility 10 miles    
Events      
Averages and records for this station are not official NWS values.
T = Trace of Precipitation, MM = Missing Value Source: NWS Daily Summary

Daily Weather History Graph

Daily Weather History Graph

Search for Another Location

Airport or City:

Trip Planner

Search our weather history database for the weather conditions in past years. The results will help you decide how hot, cold, wet, or windy it might be!

Date:

Astronomy

Dec. 30, 2013 Rise Set
Actual Time 7:51 AM CST 5:37 PM CST
Civil Twilight 7:23 AM CST 6:05 PM CST
Nautical Twilight 6:51 AM CST 6:37 PM CST
Astronomical Twilight 6:19 AM CST 7:08 PM CST
Moon 5:44 AM CST (12/30) 4:10 PM CST (12/30)
Length of Visible Light 10h 42m
Length of Day
9h 45m
Waning Crescent, 4% of the Moon is Illuminated
Dec 30
Waning Crescent
Jan 1
New
Jan 7
First Quarter
Jan 15
Full
Jan 23
Last Quarter

Hourly Weather History & Observations

Time (CST) Temp. Windchill Dew Point Humidity Pressure Visibility Wind Dir Wind Speed Gust Speed Precip Events Conditions
12:15 AM 12.6 °F - 9.0 °F 85% 30.21 in 10.0 mi Calm Calm - N/A   Clear
12:35 AM 13.3 °F - 9.1 °F 84% 30.21 in 10.0 mi Calm Calm - N/A   Clear
12:55 AM 12.9 °F - 9.1 °F 85% 30.20 in 10.0 mi Calm Calm - N/A   Clear
1:15 AM 13.1 °F 7.1 °F 9.5 °F 86% 30.20 in 10.0 mi WSW 3.5 mph - N/A   Clear
1:35 AM 13.1 °F - 9.7 °F 86% 30.19 in 10.0 mi Calm Calm - N/A   Clear
1:55 AM 12.9 °F - 9.1 °F 85% 30.18 in 10.0 mi Calm Calm - N/A   Clear
2:15 AM 14.0 °F - 10.2 °F 85% 30.18 in 10.0 mi Calm Calm - N/A   Clear
2:35 AM 13.8 °F - 10.2 °F 86% 30.18 in 10.0 mi Calm Calm - N/A   Clear
2:55 AM 13.6 °F 7.7 °F 9.9 °F 85% 30.18 in 10.0 mi SW 3.5 mph - N/A   Clear
3:15 AM 11.3 °F - 7.7 °F 85% 30.18 in 10.0 mi Calm Calm - N/A   Clear
3:35 AM 11.7 °F - 8.6 °F 88% 30.18 in 10.0 mi Calm Calm - N/A   Clear
3:55 AM 12.4 °F 6.3 °F 8.4 °F 84% 30.17 in 10.0 mi South 3.5 mph - N/A   Clear
4:15 AM 12.4 °F - 9.0 °F 86% 30.17 in 10.0 mi Calm Calm - N/A   Clear
4:35 AM 12.9 °F - 9.3 °F 86% 30.16 in 10.0 mi Calm Calm - N/A   Clear
4:55 AM 13.1 °F 7.1 °F 9.1 °F 84% 30.14 in 10.0 mi SW 3.5 mph - N/A   Clear
5:15 AM 14.0 °F - 10.0 °F 84% 30.13 in 10.0 mi Calm Calm - N/A   Clear
5:35 AM 14.0 °F - 10.2 °F 85% 30.13 in 10.0 mi Calm Calm - N/A   Clear
5:55 AM 14.7 °F - 10.6 °F 84% 30.12 in 10.0 mi Calm Calm - N/A   Clear
6:15 AM 14.9 °F - 10.4 °F 82% 30.12 in 10.0 mi Calm Calm - N/A   Clear
6:35 AM 14.9 °F - 10.4 °F 82% 30.13 in 10.0 mi Calm Calm - N/A   Clear
6:55 AM 12.2 °F - 8.4 °F 85% 30.12 in 10.0 mi Calm Calm - N/A   Clear
7:15 AM 11.3 °F - 7.7 °F 85% 30.13 in 10.0 mi Calm Calm - N/A   Clear
7:35 AM 13.6 °F - 9.7 °F 84% 30.14 in 10.0 mi Calm Calm - N/A   Clear
7:55 AM 12.2 °F - 8.2 °F 84% 30.15 in 10.0 mi Calm Calm - N/A   Clear
8:15 AM 14.0 °F - 9.7 °F 83% 30.17 in 10.0 mi Calm Calm - N/A   Clear
8:35 AM 15.8 °F - 12.0 °F 85% 30.18 in 10.0 mi Calm Calm - N/A   Clear
8:55 AM 18.3 °F 13.1 °F 13.8 °F 83% 30.18 in 10.0 mi South 3.5 mph - N/A   Clear
9:15 AM 21.6 °F - 16.5 °F 81% 30.18 in 10.0 mi Calm Calm - N/A   Clear
9:35 AM - - - N/A% 30.19 in - Calm Calm - N/A   Unknown
9:55 AM - - - N/A% - - West 3.5 mph - N/A   Unknown
10:15 AM 28.6 °F - 20.5 °F 72% 30.21 in 10.0 mi Calm Calm - N/A   Clear
10:35 AM 30.6 °F 24.7 °F 20.8 °F 67% 30.21 in 10.0 mi NW 5.8 mph - N/A   Clear
10:55 AM 32.9 °F 24.7 °F 21.0 °F 62% 30.22 in 10.0 mi WNW 10.4 mph - N/A   Clear
11:15 AM 34.7 °F 26.9 °F 21.0 °F 57% 30.21 in 10.0 mi NW 10.4 mph - N/A   Clear
11:35 AM 36.1 °F 29.9 °F 21.4 °F 55% 30.21 in 10.0 mi WNW 8.1 mph - N/A   Clear
11:55 AM 38.5 °F 32.7 °F 21.9 °F 51% 30.21 in 10.0 mi NW 8.1 mph - N/A   Clear
12:15 PM 39.7 °F 33.2 °F 22.3 °F 50% 30.20 in 10.0 mi NW 10.4 mph - N/A   Clear
12:35 PM 42.3 °F 36.3 °F 22.1 °F 45% 30.19 in 10.0 mi NW 10.4 mph - N/A   Clear
12:55 PM 45.5 °F 41.3 °F 21.7 °F 39% 30.19 in 10.0 mi North 8.1 mph - N/A   Clear
1:15 PM 48.4 °F - 20.1 °F 33% 30.18 in 10.0 mi North 15.0 mph - N/A   Clear
1:35 PM 49.5 °F - 20.1 °F 31% 30.18 in 10.0 mi North 13.8 mph 19.6 mph N/A   Clear
1:55 PM 50.7 °F - 20.1 °F 30% 30.18 in 10.0 mi North 15.0 mph 18.4 mph N/A   Clear
2:15 PM 51.1 °F - 20.1 °F 30% 30.18 in 10.0 mi North 11.5 mph - N/A   Clear
2:55 PM 52.3 °F - 22.3 °F 31% 30.19 in 10.0 mi NE 10.4 mph 16.1 mph N/A   Clear
3:15 PM 52.0 °F - 22.5 °F 32% 30.20 in 10.0 mi NNE 8.1 mph - N/A   Clear
3:35 PM 52.3 °F - 22.3 °F 31% 30.20 in 10.0 mi NNE 9.2 mph - N/A   Clear
3:55 PM 51.8 °F - 22.3 °F 32% 30.21 in 10.0 mi North 10.4 mph - N/A   Clear
4:15 PM 51.8 °F - 22.8 °F 32% 30.22 in 10.0 mi NNW 5.8 mph - N/A   Clear
4:35 PM 51.8 °F - 23.2 °F 33% 30.22 in 10.0 mi North 4.6 mph - N/A   Clear
4:55 PM 50.7 °F - 23.0 °F 34% 30.23 in 10.0 mi NNW 8.1 mph - N/A   Clear
5:15 PM 48.6 °F - 22.6 °F 36% 30.24 in 10.0 mi NNW 3.5 mph - N/A   Clear
5:35 PM 47.5 °F - 22.8 °F 38% 30.24 in 10.0 mi Calm Calm - N/A   Clear
5:55 PM 45.5 °F - 22.6 °F 41% 30.24 in 10.0 mi Calm Calm - N/A   Clear
6:15 PM 40.8 °F 36.9 °F 22.1 °F 47% 30.25 in 10.0 mi SSE 5.8 mph - N/A   Clear
6:35 PM 36.7 °F 32.9 °F 21.6 °F 54% 30.26 in 10.0 mi South 4.6 mph - N/A   Clear
6:55 PM 32.2 °F - 20.8 °F 63% 30.27 in 10.0 mi Calm Calm - N/A   Clear
7:15 PM 32.2 °F 27.7 °F 21.4 °F 64% 30.28 in 10.0 mi SW 4.6 mph - N/A   Clear
7:35 PM 33.3 °F 27.9 °F 22.1 °F 64% 30.28 in 10.0 mi SW 5.8 mph - N/A   Clear
7:55 PM 29.1 °F 23.0 °F 20.7 °F 71% 30.30 in 10.0 mi SW 5.8 mph - N/A   Clear
8:15 PM 30.6 °F 27.1 °F 21.2 °F 68% 30.31 in 10.0 mi SW 3.5 mph - N/A   Clear
8:35 PM 29.3 °F 24.3 °F 21.2 °F 72% 30.32 in 10.0 mi SW 4.6 mph - N/A   Clear
8:55 PM 29.7 °F 24.7 °F 21.4 °F 71% 30.33 in 10.0 mi WSW 4.6 mph - N/A   Clear
9:15 PM 29.3 °F - 21.2 °F 72% 30.33 in 10.0 mi Calm Calm - N/A   Clear
9:35 PM 28.8 °F - 21.2 °F 73% 30.33 in 10.0 mi Calm Calm - N/A   Clear
9:55 PM 28.6 °F - 21.4 °F 74% 30.34 in 10.0 mi Calm Calm - N/A   Clear
10:15 PM 28.4 °F 23.3 °F 21.2 °F 74% 30.34 in 10.0 mi West 4.6 mph - N/A   Clear
10:35 PM 28.8 °F - 21.2 °F 73% 30.35 in 10.0 mi Calm Calm - N/A   Clear
10:55 PM 30.0 °F - 21.9 °F 72% 30.35 in 10.0 mi Calm Calm - N/A   Clear
11:15 PM 29.8 °F - 21.9 °F 72% 30.35 in 10.0 mi Calm Calm - N/A   Clear
11:35 PM 28.9 °F - 21.2 °F 73% 30.34 in 10.0 mi Calm Calm - N/A   Clear
11:55 PM 29.5 °F - 21.6 °F 72% 30.34 in 10.0 mi Calm Calm - N/A   Clear